Location: B�hl
(48.6968°N, 8.1352°E)
Time: 06:56:44
(UTC+00:00)

SJ 16-02 - Pass Details

Date: 08 March 2021
Orbit: 605 x 617 km, 75.0° (Epoch: 11 April)

Event Time Altitude Azimuth Distance (km) Brightness Sun altitude
Rises 19:09:44 0° 336° (NNW) 2,887 5.4 -18.4°
Reaches altitude 10° 19:11:59 10° 334° (NNW) 1,980 4.5 -18.8°
Maximum altitude 19:16:23 69° 253° (WSW) 662 1.6 -19.5°
Enters shadow 19:19:22 20° 173° (S) 1,430 3.0 -19.9°
